TimeMDT,TemperatureF,Dew PointF,Humidity,Sea Level PressureIn,VisibilityMPH,Wind Direction,Wind SpeedMPH,Gust SpeedMPH,PrecipitationIn,Events,Conditions,WindDirDegrees,DateUTC
12:53 AM,54.0,44.1,69,30.01,10.0,SSE,9.2,-,N/A,,Clear,160,2013-08-16 06:53:00
1:53 AM,52.0,43.0,71,29.99,10.0,South,6.9,-,N/A,,Clear,170,2013-08-16 07:53:00
2:53 AM,48.9,42.1,77,30.00,10.0,South,4.6,-,N/A,,Clear,190,2013-08-16 08:53:00
3:53 AM,48.9,42.1,77,29.99,10.0,South,9.2,-,N/A,,Clear,170,2013-08-16 09:53:00
4:53 AM,48.0,41.0,77,29.99,10.0,South,9.2,-,N/A,,Clear,180,2013-08-16 10:53:00
5:53 AM,46.0,39.9,79,30.02,10.0,SSE,9.2,-,N/A,,Clear,160,2013-08-16 11:53:00
6:53 AM,46.0,41.0,83,30.05,8.0,South,4.6,-,N/A,,Clear,180,2013-08-16 12:53:00
7:53 AM,51.1,39.9,66,30.07,9.0,Calm,Calm,-,N/A,,Clear,0,2013-08-16 13:53:00
8:53 AM,62.1,37.0,39,30.06,9.0,SSE,8.1,-,N/A,,Clear,160,2013-08-16 14:53:00
9:53 AM,68.0,36.0,31,30.05,8.0,North,-9999.0,-,N/A,,Clear,0,2013-08-16 15:53:00
10:53 AM,72.0,36.0,27,30.02,8.0,Calm,Calm,-,N/A,,Clear,0,2013-08-16 16:53:00
11:53 AM,78.1,30.9,18,30.01,8.0,Calm,Calm,-,N/A,,Clear,0,2013-08-16 17:53:00
12:53 PM,82.0,28.0,14,29.99,6.0,NE,6.9,-,N/A,,Haze,40,2013-08-16 18:53:00
1:53 PM,82.0,21.0,10,29.98,6.0,NNW,13.8,23.0,N/A,,Haze,340,2013-08-16 19:53:00
2:53 PM,82.0,24.1,12,29.98,7.0,NNW,13.8,18.4,N/A,,Clear,330,2013-08-16 20:53:00
3:53 PM,82.9,21.9,11,29.97,7.0,Variable,5.8,-,N/A,,Clear,0,2013-08-16 21:53:00
4:53 PM,82.0,23.0,11,29.97,7.0,North,4.6,-,N/A,,Clear,360,2013-08-16 22:53:00
5:53 PM,82.9,21.9,11,29.97,8.0,NW,13.8,19.6,N/A,,Clear,320,2013-08-16 23:53:00
6:53 PM,77.0,34.0,21,29.99,8.0,East,19.6,24.2,N/A,,Clear,90,2013-08-17 00:53:00
7:09 PM,75.2,37.4,25,30.29,9.0,East,16.1,24.2,N/A,,Clear,90,2013-08-17 01:09:00
7:53 PM,72.0,39.9,31,30.01,9.0,ESE,10.4,-,N/A,,Clear,120,2013-08-17 01:53:00
8:53 PM,66.9,43.0,42,30.00,10.0,SSE,15.0,-,N/A,,Clear,150,2013-08-17 02:53:00
9:53 PM,66.0,46.9,50,30.00,10.0,SE,16.1,-,N/A,,Clear,140,2013-08-17 03:53:00
10:53 PM,64.0,48.0,56,29.98,10.0,SSE,15.0,-,N/A,,Clear,150,2013-08-17 04:53:00
11:53 PM,60.1,48.9,67,29.97,10.0,South,10.4,-,N/A,,Clear,190,2013-08-17 05:53:00